Fort Lauderdale, FL

4:24 PM EDT on May 23, 2017 (GMT -0400)
Fort Lauderdale Executive

Weather History for KFXE - November, 2013

Change the Weather History Date:

Saturday, November 9, 2013

  Actual Average Record
Temperature  
Mean Temperature 77 °F -  
Max Temperature 81 °F 83 °F 89 °F (1992)
Min Temperature 73 °F 67 °F 51 °F (1951)
Cooling Degree Days 12    
Growing Degree Days 27 (Base 50)    
Moisture  
Dew Point 73 °F    
Average Humidity 87    
Maximum Humidity 100    
Minimum Humidity 77    
Precipitation  
Precipitation 0.61 in - - ()
Sea Level Pressure  
Sea Level Pressure 30.06 in    
Wind  
Wind Speed 15 mph (ENE)    
Max Wind Speed 21 mph    
Max Gust Speed 31 mph    
Visibility 8 miles    
Events Rain    
Averages and records for this station are not official NWS values.
T = Trace of Precipitation, MM = Missing Value Source: NWS Daily Summary

Daily Weather History Graph

Daily Weather History Graph

Search for Another Location

Airport or City:

Trip Planner

Search our weather history database for the weather conditions in past years. The results will help you decide how hot, cold, wet, or windy it might be!

Date:

Astronomy

Nov. 09, 2013 Rise Set
Actual Time 6:35 AM EST 5:33 PM EST
Civil Twilight 6:10 AM EST 5:57 PM EST
Nautical Twilight 5:43 AM EST 6:25 PM EST
Astronomical Twilight 5:15 AM EST 6:52 PM EST
Moon 12:16 PM EST (11/9) 11:53 PM EST (11/9)
Length of Visible Light 11h 46m
Length of Day
10h 58m
Waxing Crescent, 44% of the Moon is Illuminated
Nov 9
Waxing Crescent
Nov 10
First Quarter
Nov 17
Full
Nov 25
Last Quarter
Dec 2
New

Hourly Weather History & Observations

Time (EST) Temp. Heat Index Dew Point Humidity Pressure Visibility Wind Dir Wind Speed Gust Speed Precip Events Conditions
12:20 AM 75.2 °F - 73.4 °F 94% 30.03 in 4.0 mi East 19.6 mph 25.3 mph 0.03 in Rain Heavy Rain
12:53 AM 77.0 °F - 72.0 °F 84% 30.03 in 10.0 mi ENE 15.0 mph 23.0 mph 0.04 in   Overcast
1:03 AM 75.2 °F - 73.4 °F 94% 30.03 in 5.0 mi East 19.6 mph 31.1 mph 0.02 in Rain Rain
1:12 AM 75.2 °F - 73.4 °F 94% 30.03 in 3.0 mi ENE 20.7 mph 28.8 mph 0.05 in Rain Light Rain
1:53 AM 75.0 °F - 75.0 °F 100% 30.03 in 4.0 mi NE 11.5 mph - 0.12 in Rain Light Rain
2:01 AM 75.2 °F - 75.2 °F 100% 30.02 in 10.0 mi NE 12.7 mph 18.4 mph 0.00 in Rain Light Rain
2:14 AM 75.2 °F - 75.2 °F 100% 30.02 in 4.0 mi ENE 15.0 mph 23.0 mph 0.01 in Rain Rain
2:25 AM 75.2 °F - - N/A% 30.01 in 2.5 mi East 16.1 mph 20.7 mph 0.05 in Rain Rain
2:42 AM 73.4 °F - - N/A% 30.02 in 1.2 mi ENE 12.7 mph 20.7 mph 0.25 in Rain Heavy Rain
2:53 AM 73.9 °F - - N/A% 30.03 in 2.0 mi ENE 13.8 mph - 0.33 in Rain Heavy Rain
3:13 AM 73.4 °F - - N/A% 30.02 in 6.0 mi NE 10.4 mph - 0.03 in Rain Light Rain
3:32 AM 75.2 °F - - N/A% 30.02 in 10.0 mi NE 12.7 mph - 0.03 in   Overcast
3:39 AM 75.2 °F - - N/A% 30.02 in 8.0 mi NE 11.5 mph - 0.03 in Rain Light Rain
3:53 AM 75.0 °F - - N/A% 30.02 in 10.0 mi NE 11.5 mph - 0.03 in   Overcast
4:01 AM 75.2 °F - - N/A% 30.02 in 10.0 mi ENE 13.8 mph 18.4 mph N/A   Overcast
4:24 AM 75.2 °F - - N/A% 30.02 in 6.0 mi NE 12.7 mph 19.6 mph 0.02 in Rain Rain
4:49 AM 75.2 °F - - N/A% 30.02 in 10.0 mi NE 11.5 mph - 0.02 in   Overcast
4:53 AM 75.0 °F - - N/A% 30.03 in 10.0 mi ENE 11.5 mph - 0.02 in   Overcast
5:53 AM 75.9 °F - - N/A% 30.05 in 10.0 mi ENE 17.3 mph 26.5 mph 0.00 in Rain Light Rain
6:21 AM 75.2 °F - - N/A% 30.05 in 10.0 mi ENE 16.1 mph - 0.01 in   Mostly Cloudy
6:53 AM 75.9 °F - 75.0 °F 97% 30.07 in 10.0 mi ENE 15.0 mph 25.3 mph 0.01 in   Scattered Clouds
7:53 AM 75.0 °F - 73.9 °F 96% 30.09 in 7.0 mi ENE 9.2 mph - 0.02 in Rain Light Rain
8:53 AM 77.0 °F - 73.0 °F 88% 30.11 in 10.0 mi ENE 19.6 mph 27.6 mph 0.00 in   Scattered Clouds
9:25 AM 78.8 °F - 73.4 °F 83% 30.11 in 10.0 mi ENE 18.4 mph 26.5 mph N/A   Mostly Cloudy
9:53 AM 78.1 °F - 73.0 °F 84% 30.12 in 10.0 mi NE 15.0 mph 24.2 mph N/A   Overcast
10:53 AM 79.0 °F - 73.0 °F 82% 30.11 in 10.0 mi ENE 17.3 mph 26.5 mph 0.00 in   Mostly Cloudy
11:53 AM 81.0 °F 85.8 °F 73.0 °F 77% 30.10 in 10.0 mi East 20.7 mph 27.6 mph 0.00 in   Scattered Clouds
12:53 PM 78.1 °F - 73.0 °F 84% 30.08 in 6.0 mi ENE 12.7 mph 26.5 mph N/A   Haze
1:00 PM 75.2 °F - 73.4 °F 94% 30.07 in 8.0 mi NE 8.1 mph - 0.00 in Rain Light Rain
1:53 PM 78.1 °F - 73.0 °F 84% 30.07 in 10.0 mi ENE 13.8 mph 27.6 mph 0.01 in   Scattered Clouds
2:53 PM 77.0 °F - 73.0 °F 88% 30.07 in 10.0 mi NE 17.3 mph 26.5 mph N/A   Mostly Cloudy
3:53 PM 79.0 °F - 71.1 °F 77% 30.06 in 10.0 mi ENE 13.8 mph - N/A   Mostly Cloudy
4:53 PM 78.1 °F - 71.1 °F 79% 30.07 in 10.0 mi ENE 12.7 mph 20.7 mph N/A   Mostly Cloudy
5:53 PM 78.1 °F - 71.1 °F 79% 30.08 in 10.0 mi ENE 18.4 mph 23.0 mph N/A   Mostly Cloudy
6:53 PM 78.1 °F - 71.1 °F 79% 30.09 in 10.0 mi NE 15.0 mph 25.3 mph 0.00 in   Scattered Clouds
7:44 PM 75.2 °F - 71.6 °F 89% 30.10 in 5.0 mi NE 12.7 mph 23.0 mph 0.01 in Rain Light Rain
7:53 PM 75.0 °F - 72.0 °F 90% 30.11 in 3.0 mi NE 13.8 mph - 0.01 in Rain Light Rain
8:20 PM 75.2 °F - 71.6 °F 89% 30.10 in 7.0 mi NE 13.8 mph 20.7 mph 0.01 in Rain Light Rain
8:53 PM 75.9 °F - 72.0 °F 87% 30.11 in 10.0 mi NE 12.7 mph - 0.02 in   Overcast
9:53 PM 77.0 °F - 71.1 °F 82% 30.11 in 10.0 mi NE 16.1 mph 21.9 mph N/A   Scattered Clouds
10:00 PM 77.0 °F - 71.6 °F 83% 30.11 in 10.0 mi NE 10.4 mph 21.9 mph N/A   Overcast
10:29 PM 77.0 °F - 71.6 °F 83% 30.10 in 10.0 mi ENE 15.0 mph - N/A   Overcast
10:53 PM 78.1 °F - 71.1 °F 79% 30.10 in 10.0 mi ENE 15.0 mph 26.5 mph N/A   Overcast
11:53 PM 78.1 °F - 72.0 °F 81% 30.09 in 10.0 mi ENE 12.7 mph 17.3 mph N/A   Mostly Cloudy